User: anonymous   Login
Location: Drayton Valley
(53.2170°N, 114.9830°W)
Time: 12:46:20
(UTC-06:00)
Language:

Cosmos 1302 Rocket - Orbit

View from above orbital plane
View from above orbital plane
View from above satellite
View from above satellite

Ground track
Ground track

The orbit data is extracted from the following two-line orbital elements,

1 12792U 81084B   17205.90444410 +.00000028 +00000-0 +18321-4 0  9992
2 12792 074.0313 325.9647 0014531 244.6670 115.2979 14.37475954880201
Epoch (UTC): 24 July 2017 21:42:23
Eccentricity: 0.0014531
inclination: 74.0313°
perigee height: 756 km
apogee height: 777 km
right ascension of ascending node: 325.9647°
argument of perigee: 244.6670°
revolutions per day: 14.37475954
mean anomaly at epoch: 115.2979°
orbit number at epoch: 88020

The dashed part of the orbit path shows where the satellite is in the earth's shadow,  

DLR